Find Kosmos-1732

NORAD ID: 16593 Int'l Des: 1986-015 Owner: VTS Country: SU operational
別名: COSMOS 1732 spacetrack, celestrak
LEOCIRCULAR

現在のビュー

3D地球を読み込み中...

About Kosmos-1732

Kosmos-1732 (NORAD 16593) is a satellite launched Feb 11, 1986 by VTS of SU. It operates in LEO, CIRCULAR orbit with a mass of 1557.00 kg.

次回通過

Passes for default location (London). Set your location on the main map for personalized predictions.

高度履歴

Loading altitude history...

軌道要素

1 16593U 86015A 26250.59025287 -.00000024 00000-0 -47620-4 0 9998
2 16593 73.6110 194.9274 0027252 307.0171 52.8380 12.41027984838044
Epoch: Sep 7, 2026 • Age: 10 hours

現在のステータス

高度 1510.6 km
遠地点 / 近地点 N/A
速度 7.11 km/s
衛星直下点 41.77°N, 138.65°W
打ち上げ日 Feb 11, 1986
運用期間 40.5 years
タイプ other

技術仕様

分類 Payload
質量 1557.00 kg
乾燥質量 1557.00 kg
総質量 1557.00 kg
長さ 5.80 m
直径 2.40 m
スパン 17.80 m
形状 Cyl + 2 Pan + Ant
製造者 NPOPM
バスタイプ KAUR-1 11F666
フェーズステータス In Orbit
所有者/国 VTS/SU

Most Searched